Wind_Speed
29 31 34 36 37 37 39 41 43 42 45 43 38 33 33 36 36 34 29 27 26 25 25 23 22 21 20 19 19 18 17 18 19 20 21 22 24 24 24 26 26 25 25 23
25 30 34 35 36 35 37 39 42 46 50 51 48 45 43 42 39 37 34 31 29 29 30 25 21 20 19 19 19 19 19 20 21 21 22 23 24 25 25 26 27 27 27 27
25 28 30 30 31 30 31 33 36 37 41 50 53 52 50 44 39 37 35 32 30 30 33 28 23 21 20 19 19 19 20 22 22 23 25 25 24 25 26 27 29 30 30 31
26 28 31 30 30 30 30 31 31 32 30 30 32 35 35 38 33 30 31 29 28 29 33 31 26 24 21 20 20 20 20 22 23 24 25 25 24 26 29 30 31 33 34 34
24 28 30 30 30 31 30 29 28 27 29 30 29 27 22 22 23 24 24 25 28 32 33 31 28 26 23 22 21 20 20 21 23 24 25 26 28 31 32 32 32 33 34 33
21 23 26 26 27 31 30 29 27 26 27 28 26 27 25 23 21 22 23 24 27 30 32 31 28 26 24 22 20 20 21 22 23 25 26 28 30 32 33 32 31 31 31 30
19 20 26 27 25 25 26 26 26 25 23 23 23 25 25 25 21 19 20 22 25 26 28 28 25 25 23 20 18 20 21 23 25 27 28 28 30 31 31 30 29 29 28 25
23 19 24 27 25 20 21 23 24 25 21 16 13 16 20 25 26 24 23 23 22 22 23 21 20 19 16 15 18 21 23 24 27 28 27 27 28 28 27 27 27 27 25 22
25 23 23 26 26 22 17 19 20 24 25 24 20 17 19 22 25 26 27 27 24 18 14 13 13 12 14 18 21 23 24 25 26 26 25 25 26 26 26 25 26 25 22 20
30 30 24 26 27 25 23 22 21 21 21 20 19 19 19 15 13 14 14 16 17 15 13 14 13 14 18 20 23 24 24 24 24 24 25 25 24 24 23 23 22 22 20 18
34 34 27 21 21 22 23 23 24 23 23 21 19 18 19 16 14 11 14 18 17 17 17 17 16 17 19 20 22 23 23 23 23 25 24 23 23 24 24 22 19 18 18 17
38 36 30 20 21 22 21 22 23 22 21 20 22 19 19 15 13 16 18 18 21 21 20 20 21 21 19 20 22 22 22 23 24 25 26 26 26 26 25 21 18 17 17 17
40 37 29 18 20 24 24 29 30 28 25 24 26 27 29 27 26 23 22 20 21 19 18 18 19 18 19 21 22 22 22 23 25 28 29 29 28 27 24 20 18 17 17 18
38 34 26 20 17 15 12 16 22 23 22 23 27 28 31 31 31 26 18 14 14 16 17 17 16 16 18 21 22 23 26 28 28 29 29 29 26 23 20 18 17 17 18 19
35 30 23 18 18 15 12 11 12 14 16 19 20 23 26 28 30 30 27 22 19 21 21 21 20 19 20 22 22 24 27 29 29 26 26 26 23 19 17 18 19 19 18 18
31 25 19 12 13 11 14 14 12 13 13 13 12 12 14 17 20 22 24 24 24 25 25 25 24 23 23 23 23 25 26 26 25 23 23 24 23 21 20 21 21 22 21 20
29 21 15 6 6 10 12 11 10 10 9 6 4 4 4 7 11 15 18 21 23 24 24 22 23 23 23 23 23 23 22 21 21 21 21 21 22 22 22 23 23 23 23 24
29 18 9 3 5 6 7 6 7 7 4 2 2 2 2 3 5 6 9 11 14 15 15 15 16 17 18 18 17 16 16 17 18 19 20 20 20 21 22 22 22 23 24 24
30 18 5 4 8 3 7 8 9 9 5 2 1 2 2 6 10 8 6 5 5 4 5 6 7 8 10 10 11 13 15 17 19 20 21 21 21 21 22 23 23 24 24 24
30 16 4 5 9 6 4 6 7 8 7 4 4 6 6 6 7 7 7 7 6 5 3 1 2 4 7 9 12 15 17 19 20 22 22 22 22 23 23 23 22 21 20 20
30 14 1 5 8 6 3 3 5 7 8 7 4 5 7 6 6 5 5 6 6 5 3 3 5 7 10 13 15 16 17 18 20 21 22 22 22 22 21 19 18 17 16 17
32 16 4 5 6 5 4 2 3 5 7 6 3 5 7 8 8 6 4 3 3 3 4 6 8 11 13 13 14 15 16 18 20 21 21 21 20 20 18 17 16 15 15 17
33 18 8 3 4 3 3 2 1 4 5 4 2 5 8 9 8 6 4 4 4 4 6 8 10 11 12 13 13 15 17 18 20 20 20 20 19 19 17 17 16 15 16 19
35 21 12 6 4 2 0 1 2 3 5 4 1 5 8 8 8 6 5 4 5 6 8 9 10 10 11 12 13 15 16 17 18 20 21 20 18 17 15 14 14 14 16 19
39 24 15 9 5 3 3 4 3 3 3 1 2 5 7 7 7 6 5 6 7 9 10 11 11 10 11 12 13 15 16 18 19 21 22 21 18 15 13 12 12 14 17 19
45 32 18 10 5 3 4 4 2 2 2 1 2 4 5 6 6 7 6 7 9 11 11 11 10 10 11 13 14 16 18 20 21 22 22 20 17 14 12 11 13 14 16 17
Wind_Direction
256 258 258 258 261 263 264 263 262 259 262 263 261 251 255 263 266 267 267 270 271 271 271 272 276 280 278 276 279 288 294 298 299 300 302 302 301 301 298 298 301 302 302 301
263 263 263 266 267 270 271 271 269 263 263 262 259 258 262 263 261 262 265 267 267 267 268 271 277 278 276 275 280 290 297 299 301 302 303 304 304 302 298 298 301 300 299 298
276 276 276 272 269 270 274 275 272 274 267 261 263 265 264 259 254 257 259 261 260 261 267 271 277 276 274 276 283 290 296 300 303 304 305 306 306 304 302 300 298 297 295 294
284 279 278 276 271 268 267 270 274 278 273 265 265 265 259 256 246 246 254 255 253 252 258 266 271 272 273 276 281 289 296 299 301 304 305 305 306 305 304 301 298 296 294 293
295 289 286 281 276 271 267 265 267 270 274 277 280 277 267 252 238 231 237 249 251 248 253 260 262 266 269 272 278 285 291 296 301 305 306 306 305 304 303 301 298 295 292 289
313 305 297 288 282 276 269 265 263 264 268 269 271 277 278 268 247 235 234 238 245 247 249 253 256 262 264 268 275 285 293 300 305 306 307 307 304 302 301 300 298 295 292 289
317 304 294 292 292 284 274 266 263 265 269 274 270 272 274 269 253 245 249 243 236 238 240 246 250 254 259 266 278 289 296 303 307 307 308 307 305 302 300 299 297 296 296 291
318 296 283 283 284 274 275 270 262 261 261 262 268 274 280 281 278 280 285 280 257 240 240 246 250 255 260 271 283 291 298 304 307 306 307 306 304 303 300 299 294 292 290 287
321 303 279 273 273 273 276 272 263 261 259 262 274 287 289 284 285 285 284 288 291 277 258 254 253 256 269 280 286 292 298 303 303 304 304 301 303 305 304 299 293 287 282 281
323 313 298 274 265 269 271 263 255 255 258 257 256 253 248 252 262 269 268 265 271 270 254 246 245 266 278 283 288 292 298 300 301 303 305 300 300 305 305 300 293 287 282 280
324 316 309 285 261 256 258 257 249 245 243 244 239 238 234 217 179 194 243 253 247 245 248 254 265 273 277 284 290 294 297 297 299 301 303 304 304 308 307 301 294 287 281 279
322 316 311 290 255 246 246 249 248 244 242 243 245 256 262 259 244 220 215 230 240 242 246 255 264 272 279 288 291 291 294 299 302 305 304 305 306 307 304 298 295 289 281 277
320 314 311 290 256 247 242 237 243 247 251 254 253 253 254 255 248 226 213 214 232 241 249 257 264 273 283 290 292 290 292 299 307 309 309 308 304 302 297 291 295 295 287 278
322 316 311 293 268 265 262 240 241 247 250 252 251 250 251 249 246 242 234 232 248 257 264 266 267 277 286 290 290 288 291 298 304 306 307 308 305 298 290 287 296 297 290 281
326 319 311 287 265 267 282 272 257 251 253 254 252 253 255 253 257 262 267 266 262 262 264 268 273 278 283 286 286 287 292 298 301 303 306 309 306 296 284 283 293 295 290 283
332 327 321 291 255 248 251 254 259 257 257 255 263 273 265 259 262 263 259 257 255 258 262 266 267 269 272 279 286 290 292 294 298 302 305 307 304 296 287 285 289 289 287 284
344 338 337 320 220 209 233 239 251 261 262 266 283 294 282 259 259 257 254 252 251 255 260 259 257 259 265 278 289 292 291 293 296 300 302 303 302 298 292 288 288 286 286 286
351 345 349 42 142 201 219 228 248 251 234 245 293 299 261 199 155 200 225 231 237 245 249 250 254 261 272 285 293 294 294 296 298 301 304 306 303 299 295 291 288 286 285 284
354 347 344 145 160 226 226 230 231 223 206 196 142 80 38 99 87 90 121 156 187 214 236 255 268 278 289 297 302 302 303 303 302 303 304 304 302 297 293 291 290 287 284 280
352 344 306 195 192 215 215 210 216 203 177 156 117 78 83 89 72 81 94 106 110 109 96 35 332 315 311 310 311 312 313 310 307 305 304 304 303 300 298 295 292 289 284 279
4 3 348 195 198 209 215 173 190 193 177 164 131 91 77 60 39 52 78 97 96 80 46 355 327 318 315 312 312 313 314 312 309 307 307 307 306 305 302 297 293 288 284 280
12 20 54 172 190 190 195 176 179 186 173 164 130 90 66 40 26 26 45 64 53 23 347 327 318 314 311 310 311 314 319 320 318 317 315 312 309 307 303 299 294 288 285 284
17 28 52 116 150 162 189 205 229 202 197 198 152 69 50 34 25 22 27 31 15 352 336 325 317 311 311 313 316 320 323 325 326 326 323 316 311 309 306 303 300 296 294 294
22 34 52 76 99 117 181 296 309 216 211 218 128 66 47 34 27 16 11 6 348 338 331 322 314 310 313 317 318 320 323 326 328 331 332 328 320 315 313 311 309 306 306 306
22 34 49 63 72 48 9 341 309 220 204 190 105 70 55 39 20 358 346 340 333 329 325 319 314 314 317 318 318 320 322 323 324 328 332 331 325 320 317 319 319 317 316 317
19 26 36 48 55 34 5 355 307 219 206 159 85 62 48 32 6 345 334 333 332 331 329 325 322 322 323 324 327 329 327 324 323 324 326 326 323 317 312 316 322 325 327 330
Height
5846 5847 5846 5846 5847 5848 5849 5850 5850 5850 5847 5848 5848 5846 5849 5852 5853 5854 5855 5856 5855 5854 5853 5854 5855 5855 5855 5855 5854 5854 5853 5852 5851 5850 5849 5848 5847 5847 5847 5845 5844 5843 5843 5842
5842 5841 5840 5840 5841 5841 5841 5841 5841 5842 5840 5839 5840 5839 5840 5843 5846 5847 5849 5850 5850 5849 5847 5849 5850 5851 5851 5850 5849 5849 5848 5847 5846 5845 5844 5844 5842 5842 5841 5839 5838 5838 5837 5837
5835 5834 5832 5833 5832 5832 5832 5831 5831 5831 5831 5830 5829 5830 5832 5833 5836 5839 5840 5843 5843 5843 5840 5843 5845 5845 5846 5845 5844 5843 5843 5842 5841 5840 5839 5838 5837 5836 5835 5834 5832 5831 5830 5830
5827 5825 5824 5824 5824 5823 5823 5822 5822 5822 5822 5821 5820 5819 5823 5824 5825 5829 5832 5834 5836 5837 5834 5836 5839 5839 5839 5839 5839 5839 5838 5837 5837 5836 5835 5834 5832 5831 5829 5828 5826 5824 5823 5822
5820 5818 5817 5816 5815 5814 5814 5814 5814 5814 5814 5815 5814 5814 5818 5816 5816 5819 5822 5824 5828 5830 5829 5831 5832 5833 5833 5833 5834 5834 5834 5833 5833 5831 5830 5828 5826 5825 5823 5821 5819 5817 5815 5814
5816 5813 5810 5808 5808 5806 5806 5806 5807 5807 5806 5808 5808 5809 5811 5810 5811 5813 5814 5816 5818 5821 5823 5823 5825 5826 5827 5828 5829 5829 5829 5828 5828 5826 5825 5823 5821 5818 5816 5813 5812 5810 5808 5806
5813 5810 5805 5802 5802 5800 5800 5801 5801 5801 5801 5802 5802 5803 5805 5805 5805 5807 5808 5810 5811 5813 5815 5817 5819 5820 5821 5823 5824 5825 5824 5823 5822 5820 5818 5816 5814 5811 5809 5807 5805 5802 5801 5799
5808 5806 5801 5797 5796 5793 5793 5794 5796 5796 5797 5796 5796 5798 5800 5800 5801 5802 5803 5804 5805 5806 5808 5811 5813 5815 5816 5818 5819 5819 5818 5817 5815 5814 5812 5809 5807 5805 5803 5801 5799 5796 5795 5793
5802 5799 5795 5792 5789 5788 5786 5787 5788 5789 5789 5791 5793 5795 5796 5796 5796 5796 5797 5799 5800 5801 5803 5806 5808 5810 5812 5813 5814 5813 5812 5811 5809 5808 5806 5804 5801 5799 5797 5795 5793 5791 5789 5788
5795 5790 5788 5784 5782 5782 5782 5781 5782 5783 5784 5787 5790 5792 5792 5790 5791 5791 5792 5793 5795 5797 5798 5800 5801 5805 5807 5808 5807 5806 5806 5805 5804 5802 5801 5798 5796 5794 5792 5789 5787 5785 5784 5783
5788 5781 5778 5774 5772 5772 5774 5773 5773 5776 5778 5781 5783 5786 5783 5782 5781 5785 5787 5790 5791 5793 5795 5797 5797 5800 5802 5802 5801 5800 5800 5800 5799 5798 5795 5792 5790 5788 5786 5784 5782 5780 5779 5779
5778 5771 5767 5766 5764 5765 5765 5765 5766 5769 5771 5773 5776 5781 5774 5776 5777 5777 5779 5783 5786 5788 5790 5792 5794 5795 5796 5796 5796 5796 5795 5794 5793 5792 5789 5787 5784 5782 5781 5780 5777 5775 5774 5775
5769 5762 5758 5757 5757 5756 5755 5756 5759 5762 5766 5769 5771 5775 5770 5772 5774 5773 5772 5774 5779 5783 5786 5788 5790 5791 5791 5791 5791 5790 5790 5789 5788 5785 5782 5780 5778 5776 5775 5775 5773 5771 5770 5770
5760 5753 5750 5749 5747 5747 5747 5749 5753 5757 5760 5763 5764 5765 5765 5766 5768 5770 5771 5774 5777 5780 5782 5784 5785 5786 5786 5786 5785 5785 5784 5783 5782 5779 5775 5773 5771 5770 5769 5769 5768 5767 5766 5766
5751 5746 5742 5740 5740 5742 5744 5747 5750 5753 5755 5757 5759 5760 5760 5761 5763 5766 5768 5771 5774 5776 5777 5778 5780 5781 5781 5781 5780 5780 5779 5777 5775 5773 5770 5767 5765 5764 5763 5763 5762 5762 5762 5761
5743 5739 5734 5733 5734 5738 5740 5743 5746 5749 5752 5754 5755 5756 5756 5757 5759 5760 5762 5765 5768 5770 5771 5772 5773 5774 5775 5775 5775 5775 5773 5771 5769 5767 5765 5763 5761 5760 5759 5758 5757 5757 5756 5756
5739 5734 5731 5729 5730 5734 5737 5740 5743 5747 5749 5751 5751 5753 5753 5754 5754 5755 5756 5758 5760 5763 5764 5766 5767 5768 5769 5770 5770 5768 5767 5766 5764 5763 5761 5759 5757 5755 5753 5753 5752 5751 5750 5749
5737 5732 5729 5729 5732 5735 5739 5740 5743 5745 5747 5748 5749 5750 5750 5749 5747 5748 5751 5753 5756 5758 5760 5762 5763 5764 5765 5765 5764 5764 5763 5762 5760 5758 5756 5754 5753 5751 5749 5748 5746 5744 5743 5741
5733 5730 5728 5729 5730 5733 5736 5738 5741 5744 5746 5747 5748 5749 5749 5747 5747 5749 5750 5753 5755 5757 5758 5759 5760 5761 5761 5762 5762 5761 5759 5758 5756 5754 5752 5750 5748 5746 5744 5741 5739 5737 5735 5734
5732 5728 5728 5729 5730 5732 5735 5738 5741 5745 5747 5748 5749 5750 5751 5751 5752 5753 5753 5753 5754 5756 5757 5758 5758 5759 5759 5759 5758 5756 5755 5753 5751 5749 5747 5745 5742 5739 5737 5734 5732 5730 5728 5727
5731 5727 5727 5729 5732 5734 5737 5739 5743 5746 5749 5749 5751 5752 5753 5754 5755 5755 5755 5755 5755 5756 5757 5757 5758 5757 5756 5755 5754 5752 5751 5749 5747 5745 5742 5739 5736 5733 5730 5728 5726 5724 5722 5721
5732 5728 5729 5731 5734 5739 5739 5742 5745 5747 5748 5750 5752 5754 5755 5756 5756 5756 5756 5756 5756 5756 5756 5756 5756 5755 5753 5752 5751 5749 5747 5745 5743 5740 5737 5734 5731 5728 5725 5723 5721 5719 5717 5715
5737 5733 5732 5735 5739 5740 5742 5745 5747 5748 5750 5752 5754 5756 5756 5757 5757 5758 5758 5757 5757 5757 5756 5755 5754 5753 5751 5749 5748 5746 5744 5742 5739 5736 5733 5730 5727 5724 5721 5718 5716 5714 5712 5709
5743 5739 5738 5740 5742 5743 5745 5747 5748 5750 5752 5754 5756 5757 5758 5758 5758 5759 5759 5758 5758 5757 5755 5754 5752 5751 5749 5747 5745 5744 5742 5739 5737 5733 5730 5726 5723 5720 5717 5714 5712 5710 5707 5704
5751 5746 5745 5745 5747 5747 5748 5749 5750 5751 5754 5756 5757 5758 5759 5759 5760 5760 5760 5759 5758 5757 5755 5753 5751 5749 5747 5745 5744 5741 5739 5736 5734 5730 5727 5723 5720 5717 5714 5712 5709 5706 5703 5699
5757 5752 5750 5750 5751 5751 5751 5751 5752 5753 5756 5757 5759 5759 5760 5760 5761 5761 5761 5760 5759 5757 5754 5752 5750 5748 5745 5743 5741 5739 5736 5733 5730 5727 5724 5721 5717 5715 5712 5710 5707 5703 5700 5695